Flag Weather past 2 weeks in Plauen, Saxony, Germany

Now
33 °F

Low clouds.


Feels Like: 29 °F
Forecast: 36 / 52 °F
Wind: 3 mph from Southeast

Location: Hof

Current Time: Nov 23, 2014 at 5:00:48 AM

Latest Report: Nov 23, 2014 at 3:00 AM


Visibility: 0 mi

Pressure: 30.30 "Hg

Humidity: 100%

Dew point: 33 °F

Location of PlauenLocation

Historic Weather in Plauen — Graph

°F

Plauen temperature yesterday

Maximum temperature yesterday: 41 °F (at 3:00 PM)
Minimum temperature yesterday: 32 °F (at 5:00 AM)
Average temperature yesterday: 36 °F

Past Weeks' High & Low Weather Summary

 TemperatureHumidityPressure
High54 °F (Nov 12, 2:00 PM)100% (Nov 8, 11:00 PM)30.35 "Hg (Nov 8, 11:00 PM)
Low32 °F (Nov 22, 5:00 AM)69% (Nov 8, 2:00 PM)29.47 "Hg (Nov 16, 5:00 AM)
Average42 °F94%29.93 "Hg
* Reported Nov 8 3:00 AM — Nov 23 3:00 AM, Plauen, Weather by CustomWeather, © 2014

Note: Actual official high and low records may vary slightly from our data, if they occured in-between our weather recording intervals... More about our weather records

Advertising

Plauen weather history for previous 24 hours

 ConditionsComfort  
Time TempWeatherWind HumidityBarometerVisibility
3:00 AM
Nov 23
33 °FLow clouds.3 mph100%30.30 "Hg0 mi
2:00 AM32 °FLow clouds.3 mph100%30.30 "Hg0 mi
1:00 AM33 °FLow clouds.3 mph100%30.31 "Hg1 mi
12:00 AM33 °FLow clouds.2 mph100%30.31 "Hg1 mi
11:00 PM
Nov 22
33 °FFog.2 mph100%30.29 "Hg2 mi
9:00 PM34 °FFog.3 mph97%30.27 "Hg2 mi
8:00 PM34 °FFog.3 mph96%30.27 "Hg3 mi
7:00 PM36 °FFog.3 mph93%30.26 "Hg4 mi
6:00 PM37 °FFog.5 mph92%30.25 "Hg4 mi
5:00 PM38 °FPassing clouds.3 mph89%30.24 "Hg5 mi
4:00 PM40 °FOvercast.3 mph85%30.23 "Hg6 mi
3:00 PM41 °FOvercast.3 mph82%30.22 "Hg6 mi
2:00 PM40 °FOvercast.5 mph83%30.22 "Hg6 mi
1:00 PM40 °FOvercast.3 mph83%30.23 "Hg6 mi
12:00 PM39 °FOvercast.6 mph83%30.25 "Hg6 mi
11:00 AM37 °FOvercast.6 mph87%30.25 "Hg5 mi
9:00 AM33 °FFog.5 mph94%30.26 "Hg4 mi
8:00 AM33 °FFog.3 mph97%30.25 "Hg3 mi
7:00 AM33 °FLow clouds.5 mph97%30.24 "HgN/A
6:00 AM34 °FFog.5 mph97%30.24 "Hg3 mi
5:00 AM32 °FFog.2 mph100%30.24 "Hg2 mi
Weather by CustomWeather, © 2014

See weather overviewHow to use our weather pages